• In Belarus
  • List of Countries
  • For 7 days
  • Water Temperature
  • Satellite Maps
  • Weather Map
  • Weather Widgets
  • user-avatar
    Login

    Hourly Weather Ilebo

    Today, 20 January, Saturday

    Time Temperature Precipitation Wind Pressure Humidity
    00:00 +26°C° 0 mm 1 mps 721 mmHg 22%
    01:00 +26°C° 0 mm 1 mps 721 mmHg 22%
    02:00 +25°C° 0 mm 1 mps 721 mmHg 22%
    03:00 +24°C° 0 mm 1 mps 721 mmHg 23%
    04:00 +22°C° 0 mm 0 mps 721 mmHg 23%
    05:00 +23°C° 0 mm 0 mps 722 mmHg 23%
    06:00 +25°C° 0 mm 1 mps 722 mmHg 22%
    07:00 +27°C° 0 mm 1 mps 723 mmHg 22%
    08:00 +30°C° 0 mm 1 mps 723 mmHg 19%
    09:00 +34°C° 0 mm 2 mps 723 mmHg 16%
    10:00 +37°C° 0 mm 2 mps 723 mmHg 13%
    11:00 +39°C° 0 mm 2 mps 722 mmHg 12%
    12:00 +40°C° 0 mm 2 mps 722 mmHg 12%
    13:00 +40°C° 0 mm 2 mps 721 mmHg 12%
    14:00 +40°C° 0 mm 2 mps 721 mmHg 12%
    15:00 +40°C° 0 mm 2 mps 720 mmHg 12%
    16:00 +39°C° 0 mm 2 mps 720 mmHg 12%
    17:00 +36°C° 0 mm 1 mps 720 mmHg 15%
    18:00 +33°C° 0 mm 1 mps 720 mmHg 17%
    19:00 +30°C° 0 mm 1 mps 720 mmHg 20%
    20:00 +29°C° 0 mm 1 mps 720 mmHg 21%
    21:00 +29°C° 0 mm 1 mps 721 mmHg 21%
    22:00 +28°C° 0 mm 1 mps 721 mmHg 22%
    23:00 +27°C° 0 mm 1 mps 721 mmHg 23%

    Tomorrow, 21 January, Sunday

    Time Temperature Precipitation Wind Pressure Humidity
    00:00 +25°C° 0 mm 0 mps 721 mmHg 24%
    01:00 +24°C° 0 mm 0 mps 721 mmHg 25%
    02:00 +26°C° 0 mm 1 mps 721 mmHg 26%
    03:00 +25°C° 0 mm 1 mps 721 mmHg 27%
    04:00 +25°C° 0 mm 1 mps 721 mmHg 28%
    05:00 +25°C° 0 mm 1 mps 721 mmHg 27%
    06:00 +24°C° 0 mm 0 mps 722 mmHg 26%
    07:00 +25°C° 0 mm 0 mps 722 mmHg 25%
    08:00 +31°C° 0 mm 1 mps 723 mmHg 21%
    09:00 +34°C° 0 mm 1 mps 723 mmHg 17%
    10:00 +39°C° 0 mm 2 mps 723 mmHg 13%
    11:00 +41°C° 0 mm 2 mps 723 mmHg 12%
    12:00 +42°C° 0 mm 1 mps 722 mmHg 11%
    13:00 +44°C° 0 mm 1 mps 721 mmHg 9%
    14:00 +43°C° 0 mm 1 mps 721 mmHg 10%
    15:00 +42°C° 0 mm 1 mps 720 mmHg 10%
    16:00 +41°C° 0 mm 1 mps 719 mmHg 10%
    17:00 +37°C° 0 mm 1 mps 719 mmHg 12%
    18:00 +35°C° 0 mm 1 mps 719 mmHg 14%
    19:00 +32°C° 0 mm 1 mps 719 mmHg 16%
    20:00 +31°C° 0 mm 1 mps 720 mmHg 16%
    21:00 +31°C° 0 mm 1 mps 720 mmHg 17%
    22:00 +30°C° 0 mm 1 mps 721 mmHg 17%
    23:00 +29°C° 0 mm 1 mps 720 mmHg 18%

    Day after tomorrow, 22 January, Monday

    Time Temperature Precipitation Wind Pressure Humidity
    00:00 +29°C° 0 mm 1 mps 720 mmHg 19%
    01:00 +28°C° 0 mm 1 mps 720 mmHg 19%
    02:00 +28°C° 0 mm 1 mps 720 mmHg 20%
    03:00 +27°C° 0 mm 1 mps 720 mmHg 20%
    04:00 +25°C° 0 mm 0 mps 720 mmHg 21%
    05:00 +25°C° 0 mm 0 mps 721 mmHg 21%
    06:00 +26°C° 0 mm 0 mps 721 mmHg 21%
    07:00 +26°C° 0 mm 0 mps 722 mmHg 21%
    08:00 +31°C° 0 mm 1 mps 722 mmHg 18%
    09:00 +33°C° 0 mm 1 mps 722 mmHg 14%
    10:00 +37°C° 0 mm 2 mps 723 mmHg 11%
    11:00 +39°C° 0 mm 2 mps 722 mmHg 10%
    12:00 +42°C° 0 mm 2 mps 721 mmHg 9%
    13:00 +44°C° 0 mm 1 mps 720 mmHg 8%
    14:00 +43°C° 0 mm 1 mps 719 mmHg 8%
    15:00 +43°C° 0 mm 1 mps 719 mmHg 8%
    16:00 +42°C° 0 mm 1 mps 718 mmHg 8%
    17:00 +39°C° 0 mm 1 mps 718 mmHg 10%
    18:00 +35°C° 0 mm 1 mps 718 mmHg 13%
    19:00 +30°C° 0 mm 0 mps 719 mmHg 15%
    20:00 +29°C° 0 mm 0 mps 719 mmHg 15%
    21:00 +31°C° 0 mm 1 mps 720 mmHg 15%
    22:00 +30°C° 0 mm 1 mps 720 mmHg 16%
    23:00 +30°C° 0 mm 1 mps 720 mmHg 16%

    23 January, Tuesday

    Time Temperature Precipitation Wind Pressure Humidity
    00:00 +30°C° 0 mm 1 mps 720 mmHg 16%
    01:00 +30°C° 0 mm 1 mps 719 mmHg 16%
    02:00 +29°C° 0 mm 1 mps 719 mmHg 17%
    03:00 +28°C° 0 mm 1 mps 720 mmHg 18%
    04:00 +25°C° 0 mm 0 mps 720 mmHg 18%
    05:00 +28°C° 0 mm 1 mps 720 mmHg 18%
    06:00 +28°C° 0 mm 1 mps 721 mmHg 18%
    07:00 +29°C° 0 mm 1 mps 722 mmHg 17%
    08:00 +32°C° 0 mm 2 mps 722 mmHg 14%
    09:00 +36°C° 0 mm 3 mps 722 mmHg 11%
    10:00 +39°C° 0 mm 3 mps 722 mmHg 8%
    11:00 +40°C° 0 mm 3 mps 721 mmHg 8%
    12:00 +42°C° 0 mm 3 mps 720 mmHg 8%
    13:00 +43°C° 0 mm 3 mps 719 mmHg 8%
    14:00 +43°C° 0 mm 3 mps 718 mmHg 8%
    15:00 +42°C° 0 mm 3 mps 718 mmHg 9%
    16:00 +41°C° 0 mm 2 mps 717 mmHg 9%
    17:00 +39°C° 0 mm 2 mps 718 mmHg 11%
    18:00 +37°C° 0 mm 2 mps 718 mmHg 12%
    19:00 +34°C° 0 mm 1 mps 719 mmHg 13%
    20:00 +33°C° 0 mm 1 mps 719 mmHg 14%
    21:00 +32°C° 0 mm 1 mps 720 mmHg 15%
    22:00 +31°C° 0 mm 1 mps 720 mmHg 15%
    23:00 +30°C° 0 mm 1 mps 720 mmHg 17%

    24 January, Wednesday

    Time Temperature Precipitation Wind Pressure Humidity
    00:00 +29°C° 0 mm 1 mps 719 mmHg 19%
    01:00 +28°C° 0 mm 1 mps 719 mmHg 21%
    02:00 +27°C° 0 mm 1 mps 719 mmHg 26%
    03:00 +26°C° 0 mm 2 mps 719 mmHg 30%
    04:00 +26°C° 0 mm 2 mps 719 mmHg 34%
    05:00 +26°C° 0 mm 2 mps 720 mmHg 37%
    06:00 +27°C° 0 mm 2 mps 721 mmHg 40%
    07:00 +27°C° 0 mm 2 mps 722 mmHg 42%
    08:00 +30°C° 0 mm 2 mps 722 mmHg 38%
    09:00 +34°C° 0 mm 2 mps 722 mmHg 33%
    10:00 +36°C° 0 mm 2 mps 723 mmHg 29%
    11:00 +38°C° 0 mm 2 mps 722 mmHg 25%
    12:00 +41°C° 0 mm 2 mps 721 mmHg 21%
    13:00 +43°C° 0 mm 1 mps 720 mmHg 16%
    14:00 +42°C° 0 mm 1 mps 719 mmHg 17%
    15:00 +41°C° 0 mm 1 mps 719 mmHg 18%
    16:00 +40°C° 0 mm 1 mps 718 mmHg 18%
    17:00 +37°C° 0 mm 1 mps 718 mmHg 21%
    18:00 +35°C° 0 mm 1 mps 719 mmHg 24%
    19:00 +33°C° 0 mm 1 mps 719 mmHg 27%
    20:00 +32°C° 0 mm 1 mps 719 mmHg 30%
    21:00 +31°C° 0 mm 1 mps 720 mmHg 33%
    22:00 +30°C° 0 mm 1 mps 720 mmHg 35%
    23:00 +30°C° 0 mm 1 mps 720 mmHg 37%

    25 January, Thursday

    Time Temperature Precipitation Wind Pressure Humidity
    00:00 +29°C° 0 mm 1 mps 719 mmHg 38%
    01:00 +29°C° 0 mm 1 mps 719 mmHg 39%
    02:00 +28°C° 0 mm 1 mps 719 mmHg 41%
    03:00 +28°C° 0 mm 1 mps 719 mmHg 44%
    04:00 +27°C° 0 mm 1 mps 720 mmHg 46%
    05:00 +28°C° 0 mm 2 mps 720 mmHg 46%
    06:00 +28°C° 0 mm 2 mps 721 mmHg 46%
    07:00 +29°C° 0 mm 2 mps 722 mmHg 46%
    08:00 +31°C° 0 mm 2 mps 722 mmHg 39%
    09:00 +35°C° 0 mm 2 mps 722 mmHg 33%
    10:00 +38°C° 0 mm 2 mps 723 mmHg 27%
    11:00 +39°C° 0 mm 2 mps 722 mmHg 23%
    12:00 +41°C° 0 mm 2 mps 721 mmHg 20%
    13:00 +42°C° 0 mm 1 mps 720 mmHg 17%
    14:00 +41°C° 0 mm 2 mps 720 mmHg 18%
    15:00 +40°C° 0 mm 2 mps 719 mmHg 19%
    16:00 +39°C° 0 mm 2 mps 719 mmHg 20%
    17:00 +37°C° 0 mm 2 mps 719 mmHg 24%
    18:00 +35°C° 0 mm 2 mps 719 mmHg 28%
    19:00 +32°C° 0 mm 2 mps 719 mmHg 33%
    20:00 +31°C° 0 mm 2 mps 720 mmHg 37%
    21:00 +30°C° 0 mm 1 mps 720 mmHg 40%
    22:00 +29°C° 0 mm 1 mps 720 mmHg 44%
    23:00 +29°C° 0 mm 1 mps 720 mmHg 46%
    Show more